TELKOM 4 (MERAH PUTIH)

Last updated on Sun Apr 12 2026 00:02:55 GMT+0000 (Coordinated Universal Time)

1 43587U 18064A 26101.47076176 -.00000343 00000+0 00000+0 0 9993 2 43587 0.0168 213.3686 0002224 203.9765 59.8308 1.00272100 28214
UTC large
Height (km)
Speed (km/s)
/
Latitude / Longitude
Inclination (degrees)
Orbital Period (minutes)
Azimuth
Elevation
Range (km)
Doppler Factor

Next 0 passes for location: London (51.5072 / 0.1276)

Sorry there are no passes over London.
TELKOM 4 (MERAH PUTIH)